Weather History for Siren, WI

Change the Weather History Date:

Saturday, July 6, 2013

  Actual Average Record
Temperature  
Mean Temperature 78 °F -  
Max Temperature 83 °F - - ()
Min Temperature 73 °F - - ()
Cooling Degree Days 13    
Growing Degree Days 28 (Base 50)    
Moisture  
Dew Point 63 °F    
Average Humidity 59    
Maximum Humidity 72    
Minimum Humidity 48    
Precipitation  
Precipitation 0.00 in - - ()
Sea Level Pressure  
Sea Level Pressure 29.87 in    
Wind  
Wind Speed 10 mph (South)    
Max Wind Speed 16 mph    
Max Gust Speed 25 mph    
Visibility 10 miles    
Events Rain    
T = Trace of Precipitation, MM = Missing Value Source: NWS Daily Summary

Daily Weather History Graph

Daily Weather History Graph

Search for Another Location

Airport:

Trip Planner

Search our weather history database for the weather conditions in past years. The results will help you decide how hot, cold, wet, or windy it might be!

Date:

Astronomy

Jul. 06, 2013 Rise Set
Actual Time 5:26 AM CDT 9:01 PM CDT
Civil Twilight 4:49 AM CDT 9:39 PM CDT
Nautical Twilight 3:58 AM CDT 10:29 PM CDT
Astronomical Twilight 2:52 AM CDT 11:35 PM CDT
Moon 4:15 AM CDT (7/6) 7:40 PM CDT (7/6)
Length of Visible Light 16h 49m
Length of Day
15h 34m
Waning Crescent, 2% of the Moon is Illuminated
Jul 6
Waning Crescent
Jul 8
New
Jul 15
First Quarter
Jul 22
Full
Jul 29
Last Quarter

Hourly Weather History & Observations

Time (CDT) Temp. Heat Index Dew Point Humidity Pressure Visibility Wind Dir Wind Speed Gust Speed Precip Events Conditions
12:15 AM 77.0 °F - 58.5 °F 53% 29.86 in 10.0 mi SSW 12.7 mph 18.4 mph N/A   Clear
12:35 AM 77.4 °F - 58.5 °F 52% 29.87 in 10.0 mi SW 15.0 mph 25.3 mph N/A   Clear
12:55 AM 76.5 °F - 58.5 °F 54% 29.87 in 10.0 mi SSW 11.5 mph 20.7 mph N/A   Clear
1:15 AM 76.5 °F - 58.6 °F 54% 29.87 in 10.0 mi SSW 11.5 mph 20.7 mph N/A   Clear
1:35 AM 76.1 °F - 59.0 °F 55% 29.87 in 10.0 mi SSW 15.0 mph 20.7 mph N/A   Clear
1:55 AM 75.7 °F - 59.0 °F 56% 29.87 in 10.0 mi SSW 10.4 mph 20.7 mph N/A   Clear
2:15 AM 75.2 °F - 59.2 °F 57% 29.88 in 10.0 mi SSW 11.5 mph 17.3 mph N/A   Clear
2:35 AM 74.8 °F - 59.2 °F 58% 29.88 in 10.0 mi SSW 16.1 mph - N/A   Clear
2:55 AM 74.7 °F - 59.4 °F 59% 29.88 in 10.0 mi SSW 10.4 mph 16.1 mph N/A   Clear
3:15 AM 74.5 °F - 59.2 °F 59% 29.88 in 10.0 mi SSW 12.7 mph 17.3 mph N/A   Clear
3:35 AM 74.7 °F - 59.2 °F 58% 29.88 in 10.0 mi SSW 12.7 mph 16.1 mph N/A   Clear
3:55 AM 74.5 °F - 59.0 °F 58% 29.88 in 10.0 mi South 10.4 mph 17.3 mph N/A   Clear
4:15 AM 73.9 °F - 59.2 °F 60% 29.88 in 10.0 mi South 9.2 mph - N/A   Clear
4:35 AM 73.9 °F - 59.0 °F 59% 29.88 in 10.0 mi SSW 8.1 mph - N/A   Scattered Clouds
4:55 AM 73.9 °F - 59.0 °F 59% 29.88 in 10.0 mi SSW 8.1 mph - N/A   Scattered Clouds
5:15 AM 74.3 °F - 58.8 °F 58% 29.88 in 10.0 mi SSW 9.2 mph - N/A   Overcast
5:35 AM 74.5 °F - 58.6 °F 58% 29.88 in 10.0 mi South 11.5 mph - N/A   Overcast
5:55 AM 74.3 °F - 58.6 °F 58% 29.88 in 10.0 mi SSW 8.1 mph - N/A   Mostly Cloudy
6:15 AM 73.0 °F - 59.2 °F 62% 29.88 in 10.0 mi South 6.9 mph - N/A   Scattered Clouds
6:35 AM 73.2 °F - 59.9 °F 63% 29.89 in 10.0 mi South 6.9 mph - N/A   Scattered Clouds
6:55 AM 73.8 °F - 59.9 °F 62% 29.89 in 10.0 mi South 8.1 mph - N/A   Mostly Cloudy
7:15 AM 74.1 °F - 59.9 °F 61% 29.89 in 10.0 mi SSW 9.2 mph - N/A   Scattered Clouds
7:35 AM 75.2 °F - 59.7 °F 58% 29.89 in 10.0 mi SSW 6.9 mph - N/A   Scattered Clouds
7:55 AM 75.6 °F - 59.9 °F 58% 29.89 in 10.0 mi SSW 9.2 mph - N/A   Scattered Clouds
8:15 AM 77.2 °F - 60.4 °F 56% 29.89 in 10.0 mi South 8.1 mph - N/A   Mostly Cloudy
8:35 AM 77.9 °F - 60.3 °F 54% 29.89 in 10.0 mi SSW 12.7 mph 16.1 mph N/A   Scattered Clouds
8:55 AM 77.5 °F - 60.6 °F 56% 29.89 in 10.0 mi SSW 9.2 mph 18.4 mph N/A   Scattered Clouds
9:15 AM 78.8 °F - 61.2 °F 55% 29.89 in 10.0 mi SSW 8.1 mph - N/A   Clear
9:35 AM 80.1 °F 81.1 °F 61.0 °F 52% 29.89 in 10.0 mi SSW 15.0 mph 19.6 mph N/A   Clear
9:55 AM 80.2 °F 81.1 °F 60.8 °F 51% 29.89 in 10.0 mi SW 6.9 mph - N/A   Scattered Clouds
10:15 AM 81.0 °F 81.7 °F 60.6 °F 50% 29.89 in 10.0 mi South 12.7 mph - N/A   Scattered Clouds
10:35 AM 82.2 °F 82.7 °F 60.8 °F 48% 29.89 in 10.0 mi SW 13.8 mph 18.4 mph N/A   Clear
10:55 AM 81.7 °F 82.3 °F 61.0 °F 49% 29.90 in 10.0 mi SSW 11.5 mph - N/A   Mostly Cloudy
11:15 AM 82.6 °F 83.1 °F 61.3 °F 48% 29.90 in 10.0 mi SW 10.4 mph - N/A   Mostly Cloudy
11:35 AM 81.7 °F 82.4 °F 61.3 °F 50% 29.90 in 10.0 mi SW 8.1 mph - N/A   Scattered Clouds
11:55 AM 83.3 °F 84.1 °F 62.1 °F 49% 29.90 in 10.0 mi SW 8.1 mph - N/A   Clear
12:15 PM 82.6 °F 83.6 °F 63.0 °F 51% 29.90 in 10.0 mi SW 8.1 mph - N/A   Clear
12:35 PM 83.7 °F 84.9 °F 63.5 °F 51% 29.90 in 10.0 mi SW 6.9 mph - N/A   Clear
12:55 PM 82.6 °F 83.8 °F 63.1 °F 52% 29.90 in 10.0 mi SW 5.8 mph - N/A   Mostly Cloudy
1:15 PM 82.4 °F 83.5 °F 63.0 °F 52% 29.90 in 10.0 mi SSW 5.8 mph - N/A   Mostly Cloudy
1:35 PM 82.8 °F 84.0 °F 63.5 °F 52% 29.89 in 10.0 mi SSW 3.5 mph - N/A   Scattered Clouds
1:55 PM 83.3 °F 84.3 °F 62.6 °F 50% 29.89 in 10.0 mi Calm Calm - N/A   Clear
2:15 PM 82.6 °F 83.8 °F 63.1 °F 52% 29.89 in 10.0 mi SSW 5.8 mph - N/A   Clear
2:35 PM 82.6 °F 84.3 °F 64.9 °F 55% 29.88 in 10.0 mi South 5.8 mph - N/A   Clear
2:55 PM 82.4 °F 84.1 °F 64.8 °F 55% 29.88 in 10.0 mi SE 4.6 mph - N/A   Clear
3:15 PM 81.5 °F 83.4 °F 65.7 °F 58% 29.88 in 10.0 mi SE 5.8 mph - N/A Rain Light Rain
3:35 PM 81.0 °F 83.4 °F 67.1 °F 63% 29.88 in 10.0 mi SE 4.6 mph - N/A Rain Rain
3:55 PM 80.6 °F 83.2 °F 67.6 °F 65% 29.88 in 10.0 mi SE 4.6 mph - N/A   Scattered Clouds
4:15 PM 81.5 °F 84.4 °F 68.2 °F 64% 29.88 in 10.0 mi SE 3.5 mph - N/A   Clear
4:35 PM 80.6 °F 83.5 °F 68.9 °F 67% 29.87 in 10.0 mi ESE 3.5 mph - N/A   Clear
4:55 PM 80.4 °F 83.2 °F 68.4 °F 67% 29.86 in 10.0 mi ESE 3.5 mph - N/A   Clear
5:15 PM 80.6 °F 83.5 °F 68.5 °F 67% 29.86 in 10.0 mi Calm Calm - N/A   Clear
5:35 PM 80.6 °F 83.5 °F 68.7 °F 67% 29.86 in 10.0 mi SE 4.6 mph - N/A   Clear
5:55 PM 80.8 °F 83.9 °F 69.3 °F 68% 29.85 in 10.0 mi SE 4.6 mph - N/A   Clear
6:15 PM 80.8 °F 83.9 °F 69.4 °F 68% 29.85 in 10.0 mi SE 4.6 mph - N/A   Clear
6:35 PM 80.8 °F 83.8 °F 69.1 °F 67% 29.85 in 10.0 mi SE 5.8 mph - N/A   Clear
6:55 PM 80.8 °F 83.8 °F 68.9 °F 67% 29.85 in 10.0 mi SSE 3.5 mph - N/A Rain Light Rain
7:15 PM 79.9 °F - 69.6 °F 71% 29.85 in 10.0 mi SSE 6.9 mph - N/A Rain Light Rain
7:35 PM 78.8 °F - 69.3 °F 72% 29.84 in 10.0 mi SSE 5.8 mph - N/A Rain Light Rain
7:55 PM 78.3 °F - 68.5 °F 72% 29.84 in 10.0 mi SSE 4.6 mph - N/A   Clear
8:15 PM 77.9 °F - 68.4 °F 72% 29.84 in 10.0 mi SSE 4.6 mph - N/A   Clear
8:35 PM 78.3 °F - 67.6 °F 70% 29.84 in 10.0 mi SSE 6.9 mph - N/A   Clear
8:55 PM 77.9 °F - 67.3 °F 70% 29.85 in 10.0 mi SSE 6.9 mph - N/A   Clear
9:15 PM 78.4 °F - 66.6 °F 67% 29.84 in 10.0 mi SSE 9.2 mph - N/A   Scattered Clouds
9:35 PM 78.4 °F - 66.2 °F 66% 29.85 in 10.0 mi South 9.2 mph - N/A   Mostly Cloudy
9:55 PM 78.8 °F - 65.8 °F 64% 29.85 in 10.0 mi South 10.4 mph - N/A   Scattered Clouds
10:15 PM 78.8 °F - 65.5 °F 64% 29.85 in 10.0 mi South 10.4 mph - N/A   Scattered Clouds
10:35 PM 79.0 °F - 65.3 °F 63% 29.85 in 10.0 mi South 11.5 mph - N/A   Clear
10:55 PM 79.0 °F - 65.3 °F 63% 29.85 in 10.0 mi South 9.2 mph 16.1 mph N/A Rain Light Rain
11:15 PM 78.8 °F - 64.9 °F 62% 29.85 in 10.0 mi South 10.4 mph - N/A   Scattered Clouds
11:35 PM 79.0 °F - 64.4 °F 61% 29.85 in 10.0 mi South 12.7 mph 17.3 mph N/A   Scattered Clouds
11:55 PM 79.2 °F - 64.4 °F 60% 29.85 in 10.0 mi South 11.5 mph - N/A   Scattered Clouds